Weather History for Grand Canyon, AZ

Change the Weather History Date:

Tuesday, September 3, 2013

  Actual Average Record
Temperature  
Mean Temperature 68 °F -  
Max Temperature 82 °F 75 °F 88 °F (2010)
Min Temperature 55 °F 44 °F 37 °F (1999)
Cooling Degree Days 4    
Growing Degree Days 18 (Base 50)    
Moisture  
Dew Point 52 °F    
Average Humidity 60    
Maximum Humidity 89    
Minimum Humidity 29    
Precipitation  
Precipitation 0.00 in - - ()
Sea Level Pressure  
Sea Level Pressure 30.00 in    
Wind  
Wind Speed 3 mph (SE)    
Max Wind Speed 12 mph    
Max Gust Speed 21 mph    
Visibility 10 miles    
Events      
Averages and records for this station are not official NWS values.
T = Trace of Precipitation, MM = Missing Value Source: NWS Daily Summary

Daily Weather History Graph

Daily Weather History Graph

Search for Another Location

Airport:

Trip Planner

Search our weather history database for the weather conditions in past years. The results will help you decide how hot, cold, wet, or windy it might be!

Date:

Astronomy

Sep. 03, 2013 Rise Set
Actual Time 6:02 AM MST 6:52 PM MST
Civil Twilight 5:36 AM MST 7:18 PM MST
Nautical Twilight 5:05 AM MST 7:49 PM MST
Astronomical Twilight 4:33 AM MST 8:21 PM MST
Moon 4:21 AM MST (9/3) 5:41 PM MST (9/3)
Length of Visible Light 13h 42m
Length of Day
12h 50m
Waning Crescent, 3% of the Moon is Illuminated
Sep 3
Waning Crescent
Sep 5
New
Sep 12
First Quarter
Sep 19
Full
Sep 26
Last Quarter

Hourly Weather History & Observations

Time (MST) Temp. Dew Point Humidity Pressure Visibility Wind Dir Wind Speed Gust Speed Precip Events Conditions
12:54 AM 61.0 °F 55.9 °F 83% 29.98 in 10.0 mi Calm Calm - 0.00 in   Overcast
1:54 AM 57.0 °F 54.0 °F 89% 29.99 in 10.0 mi Calm Calm - N/A   Scattered Clouds
2:54 AM 62.1 °F 48.9 °F 62% 29.96 in 10.0 mi East 3.5 mph - N/A   Mostly Cloudy
3:54 AM 60.1 °F 48.9 °F 67% 29.97 in 10.0 mi ENE 3.5 mph - N/A   Clear
4:54 AM 55.9 °F 48.9 °F 77% 29.97 in 10.0 mi Calm Calm - N/A   Clear
5:54 AM 55.0 °F 48.9 °F 80% 30.00 in 10.0 mi East 3.5 mph - N/A   Partly Cloudy
6:54 AM 60.1 °F 51.1 °F 72% 30.03 in 10.0 mi Calm Calm - N/A   Scattered Clouds
7:54 AM 68.0 °F 52.0 °F 56% 30.04 in 10.0 mi Calm Calm - N/A   Scattered Clouds
8:54 AM 72.0 °F 52.0 °F 49% 30.03 in 10.0 mi South 5.8 mph - N/A   Mostly Cloudy
9:54 AM 75.0 °F 53.1 °F 46% 30.04 in 10.0 mi Variable 3.5 mph - N/A   Clear
10:54 AM 78.1 °F 50.0 °F 37% 30.04 in 10.0 mi SW 11.5 mph - N/A   Partly Cloudy
11:54 AM 79.0 °F 50.0 °F 36% 30.02 in 10.0 mi SSW 8.1 mph - N/A   Partly Cloudy
12:54 PM 80.1 °F 50.0 °F 35% 30.00 in 10.0 mi SSW 5.8 mph 19.6 mph N/A   Partly Cloudy
1:54 PM 78.1 °F 48.9 °F 36% 30.01 in 10.0 mi South 9.2 mph - N/A   Scattered Clouds
2:54 PM 82.0 °F 46.9 °F 29% 29.95 in 10.0 mi South 5.8 mph - N/A   Scattered Clouds
3:54 PM 81.0 °F 46.0 °F 29% 29.95 in 10.0 mi Variable 5.8 mph 20.7 mph N/A   Scattered Clouds
4:54 PM 77.0 °F 51.1 °F 40% 29.97 in 10.0 mi East 5.8 mph - N/A   Scattered Clouds
5:54 PM 75.9 °F 50.0 °F 40% 29.99 in 10.0 mi East 3.5 mph - N/A   Clear
6:54 PM 68.0 °F 57.0 °F 68% 30.01 in 10.0 mi Calm Calm - N/A   Clear
7:54 PM 64.9 °F 55.9 °F 73% 30.00 in 10.0 mi Calm Calm - N/A   Clear
8:54 PM 62.1 °F 55.9 °F 80% 30.02 in 10.0 mi ENE 3.5 mph - N/A   Clear
9:54 PM 63.0 °F 55.9 °F 78% 30.02 in 10.0 mi Calm Calm - N/A   Clear
10:54 PM 60.1 °F 55.0 °F 83% 30.02 in 10.0 mi Calm Calm - N/A   Clear
11:54 PM 57.9 °F 54.0 °F 87% 30.02 in 10.0 mi Calm Calm - N/A   Clear